La Paz, Mexico

3:47 PM MDT on August 17, 2017 (GMT -0600)
Gen Manuel Marquez De Leon

Weather History for MMLP - March, 2013

Change the Weather History Date:

Monday, March 4, 2013

  Actual Average Record
Temperature  
Mean Temperature 76 °F -  
Max Temperature 98 °F 82 °F 99 °F (2016)
Min Temperature 53 °F 54 °F 42 °F (2008)
Cooling Degree Days 10    
Growing Degree Days 26 (Base 50)    
Moisture  
Dew Point 29 °F    
Average Humidity 19    
Maximum Humidity 47    
Minimum Humidity 4    
Precipitation  
Precipitation 0.00 in - - ()
Sea Level Pressure  
Sea Level Pressure 30.00 in    
Wind  
Wind Speed 5 mph ()    
Max Wind Speed 12 mph    
Max Gust Speed -    
Visibility 10.8 miles    
Events      
Averages and records for this station are not official NWS values.
T = Trace of Precipitation, MM = Missing Value Source: Averaged Metar Reports

Daily Weather History Graph

Daily Weather History Graph

Search for Another Location

Airport or City:

Trip Planner

Search our weather history database for the weather conditions in past years. The results will help you decide how hot, cold, wet, or windy it might be!

Date:

Astronomy

Mar. 04, 2013 Rise Set
Actual Time 6:40 AM MST 6:25 PM MST
Civil Twilight 6:17 AM MST 6:48 PM MST
Nautical Twilight 5:51 AM MST 7:14 PM MST
Astronomical Twilight 5:25 AM MST 7:41 PM MST
Moon 12:27 AM MST (3/4) 11:37 AM MST (3/4)
Length of Visible Light 12h 30m
Length of Day
11h 45m
Waning Gibbous, 51% of the Moon is Illuminated
Mar 4
Waning Gibbous
Mar 4
Last Quarter
Mar 11
New
Mar 19
First Quarter
Mar 27
Full

Hourly Weather History & Observations

Time (MST) Temp. Dew Point Humidity Pressure Visibility Wind Dir Wind Speed Gust Speed Precip Events Conditions
1:50 AM 60 °F 39 °F 34% 29.98 in 2 mi SSE 6.7 mph - -  
6:05 AM 53.6 °F 15.8 °F 22% 29.97 in 10.0 mi SSW 8.1 mph - N/A   Clear
6:44 AM 53.6 °F 15.8 °F 22% 29.98 in 10.0 mi SSW 5.8 mph - N/A   Clear
7:40 AM 58 °F 31 °F 24% 30.03 in 16 mi South 2.2 mph - -  
7:43 AM 60.8 °F 12.2 °F 15% 30.05 in 12.0 mi South 9.2 mph - N/A   Clear
8:46 AM 75.2 °F 14.0 °F 10% 30.01 in 12.0 mi South 6.9 mph - N/A   Clear
9:41 AM 86.0 °F 10.4 °F 6% 30.02 in 12.0 mi SSW 6.9 mph - N/A   Clear
10:43 AM 91.4 °F 39.2 °F 16% 30.06 in 12.0 mi South 6.9 mph - N/A   Clear
10:50 AM 91 °F 28 °F 4% 30.01 in 19 mi South 4.5 mph - -  
11:40 AM 91.4 °F 8.6 °F 5% 30.00 in 10.0 mi Calm Calm - N/A   Clear
12:40 PM 93.2 °F 10.4 °F 5% 29.97 in 12.0 mi WSW 3.5 mph - N/A   Clear
1:44 PM 93.2 °F 14.0 °F 5% 29.99 in 12.0 mi WSW 11.5 mph - N/A   Partly Cloudy
1:50 PM 98 °F 34 °F 5% 29.94 in 19 mi SSW 4.5 mph - -   Clear
2:46 PM 95.0 °F 50.0 °F 22% 29.92 in 10.0 mi SW 11.5 mph - N/A   Scattered Clouds
3:42 PM 93.2 °F 17.6 °F 6% 29.92 in 10.0 mi Calm Calm - N/A   Scattered Clouds
4:46 PM 93.2 °F 15.8 °F 6% 30.04 in 10.0 mi Calm Calm - N/A   Scattered Clouds
4:50 PM 96 °F 35 °F 6% 29.92 in 19 mi NW 2.2 mph - -   Clear
5:51 PM 86.0 °F 17.6 °F 8% 29.94 in 10.0 mi WSW 6.9 mph - N/A   Mostly Cloudy
6:58 PM 78.8 °F 24.8 °F 14% 29.97 in 10.0 mi SSE 6.9 mph - N/A   Mostly Cloudy
7:44 PM 75.2 °F 53.6 °F 47% 30.12 in 10.0 mi Calm Calm - N/A   Mostly Cloudy
7:50 PM 77 °F 58 °F 41% 29.99 in 2 mi SSW 2.2 mph - -  
8:44 PM 73.4 °F 39.2 °F 29% 30.01 in 10.0 mi South 6.9 mph - N/A   Mostly Cloudy
9:47 PM 69.8 °F 48.2 °F 46% 30.01 in 10.0 mi South 6.9 mph - N/A   Mostly Cloudy
10:43 PM 68.0 °F 46.4 °F 46% 30.12 in 10.0 mi SSW 4.6 mph - N/A   Mostly Cloudy
10:45 PM 72 °F 47 °F 30% 29.98 in 2 mi South 4.5 mph - -   Mostly Cloudy